Time,TemperatureF,DewpointF,PressureIn,WindDirection,WindDirectionDegrees,WindSpeedMPH,WindSpeedGustMPH,Humidity,HourlyPrecipIn,Conditions,Clouds,dailyrainin,SoftwareType,DateUTC
2013-01-22 00:01:00,40.6,15.7,29.28,West,274,0.0,0.3,36,0.00,CLR,,0.00,WeatherDisplay:10.37,2013-01-22 05:01:00,
2013-01-22 00:06:00,40.3,15.4,29.28,West,275,0.0,0.0,36,0.00,CLR,,0.00,WeatherDisplay:10.37,2013-01-22 05:06:00,
2013-01-22 00:11:00,40.2,16.0,29.28,West,275,0.0,0.0,37,0.00,CLR,,0.00,WeatherDisplay:10.37,2013-01-22 05:11:00,
2013-01-22 00:16:00,39.9,15.7,29.28,West,275,0.0,0.0,37,0.00,CLR,,0.00,WeatherDisplay:10.37,2013-01-22 05:16:00,
2013-01-22 00:21:00,39.8,15.6,29.28,WNW,295,4.6,4.6,37,0.00,CLR,,0.00,WeatherDisplay:10.37,2013-01-22 05:21:00,
2013-01-22 00:26:00,39.6,15.4,29.29,NW,306,2.3,2.3,37,0.00,CLR,,0.00,WeatherDisplay:10.37,2013-01-22 05:26:00,
2013-01-22 00:31:00,39.6,16.0,29.29,NW,309,0.0,0.0,38,0.00,CLR,,0.00,WeatherDisplay:10.37,2013-01-22 05:31:00,
2013-01-22 00:36:00,39.6,15.4,29.29,WSW,237,6.9,6.9,37,0.00,CLR,,0.00,WeatherDisplay:10.37,2013-01-22 05:36:00,
2013-01-22 00:41:00,39.8,15.6,29.29,West,270,3.5,3.5,37,0.00,CLR,,0.00,WeatherDisplay:10.37,2013-01-22 05:41:00,
2013-01-22 00:46:00,39.9,15.1,29.29,NW,312,4.6,4.6,36,0.00,CLR,,0.00,WeatherDisplay:10.37,2013-01-22 05:46:00,
2013-01-22 00:51:00,39.9,15.1,29.29,WNW,282,4.6,4.6,36,0.00,CLR,,0.00,WeatherDisplay:10.37,2013-01-22 05:51:00,
2013-01-22 00:56:00,39.8,15.6,29.30,NW,309,2.3,2.3,37,0.00,CLR,,0.00,WeatherDisplay:10.37,2013-01-22 05:56:00,
2013-01-22 01:01:00,39.6,14.8,29.30,WSW,247,0.0,1.0,36,0.00,CLR,,0.00,WeatherDisplay:10.37,2013-01-22 06:01:00,
2013-01-22 01:06:00,39.5,15.3,29.30,NNW,346,2.3,2.3,37,0.00,CLR,,0.00,WeatherDisplay:10.37,2013-01-22 06:06:00,
2013-01-22 01:11:00,39.2,15.1,29.30,NNE,16,1.1,0.0,37,0.00,CLR,,0.00,WeatherDisplay:10.37,2013-01-22 06:11:00,
2013-01-22 01:16:00,38.9,15.4,29.30,North,0,1.1,1.1,38,0.00,CLR,,0.00,WeatherDisplay:10.37,2013-01-22 06:16:00,
2013-01-22 01:21:00,38.8,14.7,29.30,North,0,4.6,4.6,37,0.00,CLR,,0.00,WeatherDisplay:10.37,2013-01-22 06:21:00,
2013-01-22 01:26:00,38.8,15.3,29.31,NNE,14,1.0,1.0,38,0.00,CLR,,0.00,WeatherDisplay:10.37,2013-01-22 06:26:00,
2013-01-22 01:31:00,38.8,14.7,29.31,North,0,3.5,3.5,37,0.00,CLR,,0.00,WeatherDisplay:10.37,2013-01-22 06:31:00,
2013-01-22 01:36:00,38.8,14.1,29.31,North,359,6.0,6.0,36,0.00,CLR,,0.00,WeatherDisplay:10.37,2013-01-22 06:36:00,
2013-01-22 01:41:00,38.6,13.9,29.31,North,359,5.8,5.8,36,0.00,CLR,,0.00,WeatherDisplay:10.37,2013-01-22 06:41:00,
2013-01-22 01:46:00,38.6,13.3,29.31,WSW,248,2.3,2.3,35,0.00,CLR,,0.00,WeatherDisplay:10.37,2013-01-22 06:46:00,
2013-01-22 01:52:00,38.3,13.0,29.31,NNW,330,3.5,3.5,35,0.00,CLR,,0.00,WeatherDisplay:10.37,2013-01-22 06:52:00,
2013-01-22 01:57:00,38.2,12.9,29.32,East,88,2.3,2.3,35,0.00,CLR,,0.00,WeatherDisplay:10.37,2013-01-22 06:57:00,
2013-01-22 02:02:00,38.0,13.4,29.32,WNW,289,2.3,0.0,36,0.00,CLR,,0.00,WeatherDisplay:10.37,2013-01-22 07:02:00,
2013-01-22 02:07:00,37.9,13.3,29.32,North,357,3.5,0.0,36,0.00,CLR,,0.00,WeatherDisplay:10.37,2013-01-22 07:07:00,
2013-01-22 02:12:00,37.8,13.2,29.32,WSW,248,2.0,2.0,36,0.00,CLR,,0.00,WeatherDisplay:10.37,2013-01-22 07:12:00,
2013-01-22 02:17:00,37.6,13.0,29.32,North,359,10.4,10.4,36,0.00,CLR,,0.00,WeatherDisplay:10.37,2013-01-22 07:17:00,
2013-01-22 02:22:00,37.5,12.3,29.32,North,0,4.6,4.6,35,0.00,CLR,,0.00,WeatherDisplay:10.37,2013-01-22 07:22:00,
2013-01-22 02:27:00,37.3,12.7,29.33,North,353,1.1,0.0,36,0.00,CLR,,0.00,WeatherDisplay:10.37,2013-01-22 07:27:00,
2013-01-22 02:32:00,37.3,12.1,29.33,North,359,2.3,2.3,35,0.00,CLR,,0.00,WeatherDisplay:10.37,2013-01-22 07:32:00,
2013-01-22 02:37:00,37.0,12.5,29.33,North,359,1.1,0.0,36,0.00,CLR,,0.00,WeatherDisplay:10.37,2013-01-22 07:37:00,
2013-01-22 02:42:00,36.8,12.9,29.34,North,359,0.0,0.0,37,0.00,CLR,,0.00,WeatherDisplay:10.37,2013-01-22 07:42:00,
2013-01-22 02:47:00,36.5,13.3,29.34,North,0,2.3,4.2,38,0.00,CLR,,0.00,WeatherDisplay:10.37,2013-01-22 07:47:00,
2013-01-22 02:52:00,36.2,12.4,29.34,North,359,5.8,5.8,37,0.00,CLR,,0.00,WeatherDisplay:10.37,2013-01-22 07:52:00,
2013-01-22 02:57:00,36.2,12.4,29.34,NNW,332,4.0,4.0,37,0.00,CLR,,0.00,WeatherDisplay:10.37,2013-01-22 07:57:00,
2013-01-22 03:02:00,36.0,12.2,29.34,NNW,346,1.1,1.1,37,0.00,CLR,,0.00,WeatherDisplay:10.37,2013-01-22 08:02:00,
2013-01-22 03:07:00,35.8,12.6,29.34,NNW,343,3.5,3.5,38,0.00,CLR,,0.00,WeatherDisplay:10.37,2013-01-22 08:07:00,
2013-01-22 03:12:00,35.6,12.5,29.35,NNW,343,0.0,0.0,38,0.00,CLR,,0.00,WeatherDisplay:10.37,2013-01-22 08:12:00,
2013-01-22 03:17:00,35.3,12.8,29.35,NNW,342,1.1,0.0,39,0.00,CLR,,0.00,WeatherDisplay:10.37,2013-01-22 08:17:00,
2013-01-22 03:22:00,35.0,11.9,29.35,North,350,2.3,2.3,38,0.00,CLR,,0.00,WeatherDisplay:10.37,2013-01-22 08:22:00,
2013-01-22 03:27:00,34.9,11.2,29.35,North,0,2.3,2.3,37,0.00,CLR,,0.00,WeatherDisplay:10.37,2013-01-22 08:27:00,
2013-01-22 03:32:00,34.9,11.8,29.35,North,359,1.1,1.1,38,0.00,CLR,,0.00,WeatherDisplay:10.37,2013-01-22 08:32:00,
2013-01-22 03:37:00,34.6,11.6,29.35,North,359,4.6,4.6,38,0.00,CLR,,0.00,WeatherDisplay:10.37,2013-01-22 08:37:00,
2013-01-22 03:42:00,34.4,10.8,29.36,NE,42,3.5,3.6,37,0.00,CLR,,0.00,WeatherDisplay:10.37,2013-01-22 08:42:00,
2013-01-22 03:47:00,34.4,10.2,29.36,North,356,9.2,9.2,36,0.00,CLR,,0.00,WeatherDisplay:10.37,2013-01-22 08:47:00,
2013-01-22 03:52:00,34.3,9.4,29.36,NNE,28,10.4,10.4,35,0.00,CLR,,0.00,WeatherDisplay:10.37,2013-01-22 08:52:00,
2013-01-22 03:57:00,34.1,9.3,29.36,North,0,13.8,13.8,35,0.00,CLR,,0.00,WeatherDisplay:10.37,2013-01-22 08:57:00,
2013-01-22 04:02:00,33.8,9.6,29.36,North,0,6.9,6.9,36,0.00,CLR,,0.00,WeatherDisplay:10.37,2013-01-22 09:02:00,
2013-01-22 04:07:00,33.5,8.7,29.36,North,353,9.0,9.0,35,0.00,CLR,,0.00,WeatherDisplay:10.37,2013-01-22 09:07:00,
2013-01-22 04:12:00,33.4,9.3,29.37,NNE,21,6.9,6.9,36,0.00,CLR,,0.00,WeatherDisplay:10.37,2013-01-22 09:12:00,
2013-01-22 04:17:00,33.2,9.7,29.37,NNE,14,5.8,5.8,37,0.00,CLR,,0.00,WeatherDisplay:10.37,2013-01-22 09:17:00,
2013-01-22 04:22:00,32.9,9.4,29.37,East,89,4.6,4.6,37,0.00,CLR,,0.00,WeatherDisplay:10.37,2013-01-22 09:22:00,
2013-01-22 04:27:00,32.7,9.3,29.38,North,352,6.9,6.9,37,0.00,CLR,,0.00,WeatherDisplay:10.37,2013-01-22 09:27:00,
2013-01-22 04:32:00,32.7,8.6,29.38,NNW,346,12.7,12.7,36,0.00,CLR,,0.00,WeatherDisplay:10.37,2013-01-22 09:32:00,
2013-01-22 04:37:00,32.5,8.5,29.38,NNE,14,4.6,4.6,36,0.00,CLR,,0.00,WeatherDisplay:10.37,2013-01-22 09:37:00,
2013-01-22 04:42:00,32.4,8.4,29.39,NNW,347,8.1,8.1,36,0.00,CLR,,0.00,WeatherDisplay:10.37,2013-01-22 09:42:00,
2013-01-22 04:47:00,32.2,7.6,29.39,NNW,339,11.5,11.5,35,0.00,CLR,,0.00,WeatherDisplay:10.37,2013-01-22 09:47:00,
2013-01-22 04:52:00,32.1,7.5,29.39,NNW,339,10.4,10.4,35,0.00,CLR,,0.00,WeatherDisplay:10.37,2013-01-22 09:52:00,
2013-01-22 04:57:00,31.9,7.3,29.40,North,350,9.2,9.2,35,0.00,CLR,,0.00,WeatherDisplay:10.37,2013-01-22 09:57:00,
2013-01-22 05:02:00,31.8,7.2,29.40,North,0,10.4,10.4,35,0.00,CLR,,0.00,WeatherDisplay:10.37,2013-01-22 10:02:00,
2013-01-22 05:07:00,31.6,7.7,29.40,North,0,0.0,0.0,36,0.00,CLR,,0.00,WeatherDisplay:10.37,2013-01-22 10:07:00,
2013-01-22 05:12:00,31.3,6.8,29.41,NW,322,6.9,6.9,35,0.00,CLR,,0.00,WeatherDisplay:10.37,2013-01-22 10:12:00,
2013-01-22 05:17:00,31.3,6.1,29.41,NNE,20,3.5,3.5,34,0.00,CLR,,0.00,WeatherDisplay:10.37,2013-01-22 10:17:00,
2013-01-22 05:22:00,31.2,6.0,29.41,North,359,8.1,8.1,34,0.00,CLR,,0.00,WeatherDisplay:10.37,2013-01-22 10:22:00,
2013-01-22 05:27:00,31.0,5.9,29.42,North,1,6.9,6.9,34,0.00,CLR,,0.00,WeatherDisplay:10.37,2013-01-22 10:27:00,
2013-01-22 05:32:00,30.9,5.8,29.42,North,350,3.5,3.5,34,0.00,CLR,,0.00,WeatherDisplay:10.37,2013-01-22 10:32:00,
2013-01-22 05:37:00,30.7,6.2,29.42,NNW,329,5.8,5.8,35,0.00,CLR,,0.00,WeatherDisplay:10.37,2013-01-22 10:37:00,
2013-01-22 05:42:00,30.6,5.5,29.42,WNW,284,4.6,4.6,34,0.00,CLR,,0.00,WeatherDisplay:10.37,2013-01-22 10:42:00,
2013-01-22 05:47:00,30.6,5.5,29.42,North,0,3.5,3.5,34,0.00,CLR,,0.00,WeatherDisplay:10.37,2013-01-22 10:47:00,
2013-01-22 05:52:00,30.4,6.6,29.42,NNW,340,0.0,0.0,36,0.00,CLR,,0.00,WeatherDisplay:10.37,2013-01-22 10:52:00,
2013-01-22 05:57:00,30.1,5.7,29.43,North,0,3.5,3.5,35,0.00,CLR,,0.00,WeatherDisplay:10.37,2013-01-22 10:57:00,
2013-01-22 06:02:00,30.0,5.6,29.43,NNW,342,6.9,6.9,35,0.00,CLR,,0.00,WeatherDisplay:10.37,2013-01-22 11:02:00,
2013-01-22 06:07:00,29.8,5.4,29.43,North,0,5.8,5.8,35,0.00,CLR,,0.00,WeatherDisplay:10.37,2013-01-22 11:07:00,
2013-01-22 06:12:00,29.8,5.4,29.44,North,359,5.8,5.8,35,0.00,CLR,,0.00,WeatherDisplay:10.37,2013-01-22 11:12:00,
2013-01-22 06:17:00,29.8,5.4,29.44,North,357,6.9,6.9,35,0.00,CLR,,0.00,WeatherDisplay:10.37,2013-01-22 11:17:00,
2013-01-22 06:22:00,29.7,5.3,29.44,NNW,340,11.5,11.5,35,0.00,CLR,,0.00,WeatherDisplay:10.37,2013-01-22 11:22:00,
2013-01-22 06:27:00,29.7,5.3,29.44,NNW,330,12.0,12.0,35,0.00,CLR,,0.00,WeatherDisplay:10.37,2013-01-22 11:27:00,
2013-01-22 06:32:00,29.7,5.3,29.44,North,359,6.0,6.0,35,0.00,CLR,,0.00,WeatherDisplay:10.37,2013-01-22 11:32:00,
2013-01-22 06:37:00,29.5,5.2,29.44,North,3,5.8,5.8,35,0.00,CLR,,0.00,WeatherDisplay:10.37,2013-01-22 11:37:00,
2013-01-22 06:42:00,29.5,5.2,29.45,NNW,346,8.1,8.1,35,0.00,CLR,,0.00,WeatherDisplay:10.37,2013-01-22 11:42:00,
2013-01-22 06:47:00,29.5,5.2,29.45,North,354,10.4,10.4,35,0.00,CLR,,0.00,WeatherDisplay:10.37,2013-01-22 11:47:00,
2013-01-22 06:52:00,29.4,6.3,29.45,North,353,3.0,3.0,37,0.00,CLR,,0.00,WeatherDisplay:10.37,2013-01-22 11:52:00,
2013-01-22 06:57:00,29.3,6.2,29.46,North,356,3.5,3.5,37,0.00,CLR,,0.00,WeatherDisplay:10.37,2013-01-22 11:57:00,
2013-01-22 07:02:00,29.1,6.0,29.46,North,0,3.5,3.5,37,0.00,CLR,,0.00,WeatherDisplay:10.37,2013-01-22 12:02:00,
2013-01-22 07:07:00,29.1,6.0,29.46,NNW,342,6.0,6.0,37,0.00,CLR,,0.00,WeatherDisplay:10.37,2013-01-22 12:07:00,
2013-01-22 07:12:00,29.0,5.9,29.47,North,1,4.6,4.6,37,0.00,CLR,,0.00,WeatherDisplay:10.37,2013-01-22 12:12:00,
2013-01-22 07:17:00,28.8,5.8,29.47,NNW,346,3.5,3.5,37,0.00,CLR,,0.00,WeatherDisplay:10.37,2013-01-22 12:17:00,
2013-01-22 07:22:00,28.7,5.7,29.47,North,3,10.4,10.4,37,0.00,CLR,,0.00,WeatherDisplay:10.37,2013-01-22 12:22:00,
2013-01-22 07:27:00,28.7,6.3,29.49,North,350,8.0,8.0,38,0.00,CLR,,0.00,WeatherDisplay:10.37,2013-01-22 12:27:00,
2013-01-22 07:32:00,28.5,6.1,29.49,NNW,346,2.3,2.3,38,0.00,CLR,,0.00,WeatherDisplay:10.37,2013-01-22 12:32:00,
2013-01-22 07:37:00,28.4,5.4,29.49,North,359,11.5,11.5,37,0.00,CLR,,0.00,WeatherDisplay:10.37,2013-01-22 12:37:00,
2013-01-22 07:43:00,28.5,5.5,29.49,North,352,10.4,10.4,37,0.00,CLR,,0.00,WeatherDisplay:10.37,2013-01-22 12:43:00,
2013-01-22 07:48:00,28.5,5.5,29.49,North,349,6.0,6.0,37,0.00,CLR,,0.00,WeatherDisplay:10.37,2013-01-22 12:48:00,
2013-01-22 07:53:00,28.5,5.5,29.49,North,0,5.8,5.8,37,0.00,CLR,,0.00,WeatherDisplay:10.37,2013-01-22 12:53:00,
2013-01-22 07:58:00,28.5,5.5,29.50,North,4,3.5,3.5,37,0.00,CLR,,0.00,WeatherDisplay:10.37,2013-01-22 12:58:00,
2013-01-22 08:03:00,28.5,6.1,29.50,North,7,5.8,5.8,38,0.00,CLR,,0.00,WeatherDisplay:10.37,2013-01-22 13:03:00,
2013-01-22 08:08:00,28.5,6.1,29.50,NE,40,10.4,10.4,38,0.00,CLR,,0.00,WeatherDisplay:10.37,2013-01-22 13:08:00,
2013-01-22 08:13:00,28.5,6.1,29.51,North,0,3.5,3.5,38,0.00,CLR,,0.00,WeatherDisplay:10.37,2013-01-22 13:13:00,
2013-01-22 08:18:00,28.7,6.3,29.51,NNE,28,0.0,4.0,38,0.00,CLR,,0.00,WeatherDisplay:10.37,2013-01-22 13:18:00,
2013-01-22 08:23:00,28.7,6.3,29.51,NNE,18,6.0,6.0,38,0.00,CLR,,0.00,WeatherDisplay:10.37,2013-01-22 13:23:00,
2013-01-22 08:29:00,28.7,6.3,29.51,NNW,340,11.5,11.5,38,0.00,CLR,,0.00,WeatherDisplay:10.37,2013-01-22 13:29:00,
2013-01-22 08:34:00,28.7,6.3,29.51,NNW,343,11.5,11.5,38,0.00,CLR,,0.00,WeatherDisplay:10.37,2013-01-22 13:34:00,
2013-01-22 08:39:00,28.7,1.8,29.51,NNW,347,10.4,10.4,31,0.00,CLR,,0.00,WeatherDisplay:10.37,2013-01-22 13:39:00,
2013-01-22 08:44:00,28.7,1.1,29.51,NNW,342,9.2,9.2,30,0.00,CLR,,0.00,WeatherDisplay:10.37,2013-01-22 13:44:00,
2013-01-22 08:49:00,28.7,-0.4,29.51,NW,320,13.8,13.8,28,0.00,CLR,,0.00,WeatherDisplay:10.37,2013-01-22 13:49:00,
2013-01-22 08:54:00,28.7,-0.4,29.51,North,10,13.8,13.8,28,0.00,CLR,,0.00,WeatherDisplay:10.37,2013-01-22 13:54:00,
2013-01-22 08:59:00,28.8,-0.3,29.52,North,0,18.4,18.4,28,0.00,CLR,,0.00,WeatherDisplay:10.37,2013-01-22 13:59:00,
2013-01-22 09:04:00,28.8,-1.0,29.52,North,353,11.5,11.7,27,0.00,CLR,,0.00,WeatherDisplay:10.37,2013-01-22 14:04:00,
2013-01-22 09:09:00,29.0,-0.1,29.52,North,0,12.7,12.7,28,0.00,CLR,,0.00,WeatherDisplay:10.37,2013-01-22 14:09:00,
2013-01-22 09:14:00,29.1,-0.8,29.52,NNE,13,11.5,11.5,27,0.00,CLR,,0.00,WeatherDisplay:10.37,2013-01-22 14:14:00,
2013-01-22 09:19:00,29.4,0.3,29.52,North,359,9.0,9.0,28,0.00,CLR,,0.00,WeatherDisplay:10.37,2013-01-22 14:19:00,
2013-01-22 09:24:00,29.7,-0.3,29.52,North,0,3.5,4.1,27,0.00,CLR,,0.00,WeatherDisplay:10.37,2013-01-22 14:24:00,
2013-01-22 09:29:00,29.7,-1.1,29.53,West,263,6.9,6.9,26,0.00,CLR,,0.00,WeatherDisplay:10.37,2013-01-22 14:29:00,
2013-01-22 09:34:00,29.7,-1.1,29.53,North,353,18.4,18.4,26,0.00,CLR,,0.00,WeatherDisplay:10.37,2013-01-22 14:34:00,
2013-01-22 09:39:00,29.8,-1.0,29.53,NNE,32,13.8,13.8,26,0.00,CLR,,0.00,WeatherDisplay:10.37,2013-01-22 14:39:00,
2013-01-22 09:44:00,29.8,-1.0,29.54,NNW,346,16.1,16.1,26,0.00,CLR,,0.00,WeatherDisplay:10.37,2013-01-22 14:44:00,
2013-01-22 09:49:00,29.8,-1.0,29.54,North,3,13.0,13.0,26,0.00,CLR,,0.00,WeatherDisplay:10.37,2013-01-22 14:49:00,
2013-01-22 09:54:00,30.0,-1.6,29.54,NNW,347,11.5,11.5,25,0.00,CLR,,0.00,WeatherDisplay:10.37,2013-01-22 14:54:00,
2013-01-22 09:59:00,30.0,-1.6,29.55,NNW,330,8.1,8.1,25,0.00,CLR,,0.00,WeatherDisplay:10.37,2013-01-22 14:59:00,
2013-01-22 10:04:00,30.1,-1.6,29.55,North,354,12.0,12.0,25,0.00,CLR,,0.00,WeatherDisplay:10.37,2013-01-22 15:04:00,
2013-01-22 10:09:00,30.3,-1.4,29.55,North,6,8.1,8.1,25,0.00,CLR,,0.00,WeatherDisplay:10.37,2013-01-22 15:09:00,
2013-01-22 10:14:00,30.6,-0.3,29.55,North,352,6.9,6.9,26,0.00,CLR,,0.00,WeatherDisplay:10.37,2013-01-22 15:14:00,
2013-01-22 10:19:00,30.9,-0.9,29.55,NW,311,8.1,8.1,25,0.00,CLR,,0.00,WeatherDisplay:10.37,2013-01-22 15:19:00,
2013-01-22 10:24:00,31.2,-0.6,29.55,North,0,6.9,6.9,25,0.00,CLR,,0.00,WeatherDisplay:10.37,2013-01-22 15:24:00,
2013-01-22 10:29:00,31.5,0.5,29.55,NW,318,11.5,11.5,26,0.00,CLR,,0.00,WeatherDisplay:10.37,2013-01-22 15:29:00,
2013-01-22 10:34:00,31.8,-0.1,29.55,NW,326,6.9,6.9,25,0.00,CLR,,0.00,WeatherDisplay:10.37,2013-01-22 15:34:00,
2013-01-22 10:39:00,31.9,0.0,29.55,NNE,25,11.5,11.5,25,0.00,CLR,,0.00,WeatherDisplay:10.37,2013-01-22 15:39:00,
2013-01-22 10:44:00,31.9,0.0,29.55,North,0,6.9,6.9,25,0.00,CLR,,0.00,WeatherDisplay:10.37,2013-01-22 15:44:00,
2013-01-22 10:49:00,31.9,-2.7,29.55,North,354,11.5,11.5,22,0.00,CLR,,0.00,WeatherDisplay:10.37,2013-01-22 15:49:00,
2013-01-22 10:54:00,31.6,-3.0,29.55,North,357,13.8,13.8,22,0.00,CLR,,0.00,WeatherDisplay:10.37,2013-01-22 15:54:00,
2013-01-22 10:59:00,31.5,-2.1,29.55,NNE,13,10.4,10.4,23,0.00,CLR,,0.00,WeatherDisplay:10.37,2013-01-22 15:59:00,
2013-01-22 11:04:00,31.2,-1.5,29.55,NNW,344,11.5,11.5,24,0.00,CLR,,0.00,WeatherDisplay:10.37,2013-01-22 16:04:00,
2013-01-22 11:09:00,31.0,-1.6,29.55,NNW,332,11.5,11.5,24,0.00,CLR,,0.00,WeatherDisplay:10.37,2013-01-22 16:09:00,
2013-01-22 11:14:00,31.3,0.3,29.56,North,6,10.0,10.0,26,0.00,CLR,,0.00,WeatherDisplay:10.37,2013-01-22 16:14:00,
2013-01-22 11:19:00,31.5,-1.2,29.56,North,359,11.5,11.5,24,0.00,CLR,,0.00,WeatherDisplay:10.37,2013-01-22 16:19:00,
2013-01-22 11:24:00,31.3,-0.5,29.56,NE,34,11.5,11.5,25,0.00,CLR,,0.00,WeatherDisplay:10.37,2013-01-22 16:24:00,
2013-01-22 11:29:00,31.6,-1.1,29.55,North,354,8.1,8.1,24,0.00,CLR,,0.00,WeatherDisplay:10.37,2013-01-22 16:29:00,
2013-01-22 11:34:00,31.9,-1.8,29.55,NW,322,12.7,12.7,23,0.00,CLR,,0.00,WeatherDisplay:10.37,2013-01-22 16:34:00,
2013-01-22 11:39:00,31.9,-0.9,29.55,NNW,343,8.0,8.0,24,0.00,CLR,,0.00,WeatherDisplay:10.37,2013-01-22 16:39:00,
2013-01-22 11:44:00,31.8,-2.8,29.55,West,280,8.0,8.0,22,0.00,CLR,,0.00,WeatherDisplay:10.37,2013-01-22 16:44:00,
2013-01-22 11:49:00,32.2,-1.5,29.55,North,0,11.5,11.5,23,0.00,CLR,,0.00,WeatherDisplay:10.37,2013-01-22 16:49:00,
2013-01-22 11:54:00,32.1,-2.5,29.55,NNW,342,9.2,9.2,22,0.00,CLR,,0.00,WeatherDisplay:10.37,2013-01-22 16:54:00,
2013-01-22 11:59:00,31.9,-2.7,29.54,North,353,11.5,11.5,22,0.00,CLR,,0.00,WeatherDisplay:10.37,2013-01-22 16:59:00,
2013-01-22 12:04:00,31.5,-2.1,29.54,North,0,5.8,5.8,23,0.00,CLR,,0.00,WeatherDisplay:10.37,2013-01-22 17:04:00,
2013-01-22 12:09:00,32.1,-3.5,29.54,NNW,335,13.8,13.8,21,0.00,CLR,,0.00,WeatherDisplay:10.37,2013-01-22 17:09:00,
2013-01-22 12:14:00,32.4,-2.3,29.53,West,260,11.5,11.5,22,0.00,CLR,,0.00,WeatherDisplay:10.37,2013-01-22 17:14:00,
2013-01-22 12:19:00,32.4,-2.3,29.53,WNW,292,11.5,11.5,22,0.00,CLR,,0.00,WeatherDisplay:10.37,2013-01-22 17:19:00,
2013-01-22 12:24:00,32.7,-5.1,29.53,North,349,19.6,19.6,19,0.00,CLR,,0.00,WeatherDisplay:10.37,2013-01-22 17:24:00,
2013-01-22 12:29:00,32.7,-4.0,29.53,WNW,296,10.4,10.4,20,0.00,CLR,,0.00,WeatherDisplay:10.37,2013-01-22 17:29:00,
2013-01-22 12:34:00,32.5,-5.3,29.53,WNW,298,11.5,11.5,19,0.00,CLR,,0.00,WeatherDisplay:10.37,2013-01-22 17:34:00,
2013-01-22 12:39:00,32.5,-5.3,29.53,West,281,15.0,15.0,19,0.00,CLR,,0.00,WeatherDisplay:10.37,2013-01-22 17:39:00,
2013-01-22 12:44:00,32.5,-4.2,29.52,North,11,5.8,5.8,20,0.00,CLR,,0.00,WeatherDisplay:10.37,2013-01-22 17:44:00,
2013-01-22 12:49:00,32.8,-4.0,29.52,North,10,6.9,6.9,20,0.00,CLR,,0.00,WeatherDisplay:10.37,2013-01-22 17:49:00,
2013-01-22 12:54:00,33.1,-4.8,29.52,SE,134,8.1,8.1,19,0.00,CLR,,0.00,WeatherDisplay:10.37,2013-01-22 17:54:00,
2013-01-22 12:59:00,33.2,-4.7,29.52,WSW,251,6.9,6.9,19,0.00,CLR,,0.00,WeatherDisplay:10.37,2013-01-22 17:59:00,
2013-01-22 13:04:00,33.4,-4.5,29.52,NW,320,13.8,13.8,19,0.00,CLR,,0.00,WeatherDisplay:10.37,2013-01-22 18:04:00,
2013-01-22 13:09:00,33.1,-4.8,29.52,WSW,246,9.2,9.2,19,0.00,CLR,,0.00,WeatherDisplay:10.37,2013-01-22 18:09:00,
2013-01-22 13:14:00,33.1,-2.7,29.51,WNW,292,6.9,6.9,21,0.00,CLR,,0.00,WeatherDisplay:10.37,2013-01-22 18:14:00,
2013-01-22 13:19:00,33.2,-4.7,29.51,NW,312,13.8,13.8,19,0.00,CLR,,0.00,WeatherDisplay:10.37,2013-01-22 18:19:00,
2013-01-22 13:24:00,33.1,-4.8,29.51,WNW,284,8.1,8.1,19,0.00,CLR,,0.00,WeatherDisplay:10.37,2013-01-22 18:24:00,
2013-01-22 13:29:00,33.5,-3.4,29.51,NNW,333,5.8,5.8,20,0.00,CLR,,0.00,WeatherDisplay:10.37,2013-01-22 18:29:00,
2013-01-22 13:34:00,34.1,-1.8,29.51,SSW,213,4.6,4.6,21,0.00,CLR,,0.00,WeatherDisplay:10.37,2013-01-22 18:34:00,
2013-01-22 13:39:00,33.8,-5.3,29.51,NNW,328,12.0,12.0,18,0.00,CLR,,0.00,WeatherDisplay:10.37,2013-01-22 18:39:00,
2013-01-22 13:44:00,33.5,-4.4,29.50,WNW,284,10.4,10.4,19,0.00,CLR,,0.00,WeatherDisplay:10.37,2013-01-22 18:44:00,
2013-01-22 13:49:00,33.2,-4.7,29.50,WNW,299,10.4,10.4,19,0.00,CLR,,0.00,WeatherDisplay:10.37,2013-01-22 18:49:00,
2013-01-22 13:54:00,32.9,-4.9,29.50,North,1,12.7,12.7,19,0.00,CLR,,0.00,WeatherDisplay:10.37,2013-01-22 18:54:00,
2013-01-22 13:59:00,33.2,-4.7,29.50,NE,34,11.5,11.5,19,0.00,CLR,,0.00,WeatherDisplay:10.37,2013-01-22 18:59:00,
2013-01-22 14:04:00,33.8,-4.2,29.50,WSW,250,9.2,9.2,19,0.00,CLR,,0.00,WeatherDisplay:10.37,2013-01-22 19:04:00,
2013-01-22 14:09:00,34.0,-4.0,29.50,West,280,7.0,7.0,19,0.00,CLR,,0.00,WeatherDisplay:10.37,2013-01-22 19:09:00,
2013-01-22 14:14:00,33.8,-5.3,29.51,NNE,31,11.5,11.5,18,0.00,CLR,,0.00,WeatherDisplay:10.37,2013-01-22 19:14:00,
2013-01-22 14:19:00,33.7,-3.2,29.51,North,11,17.3,17.3,20,0.00,CLR,,0.00,WeatherDisplay:10.37,2013-01-22 19:19:00,
2013-01-22 14:24:00,33.5,-3.4,29.51,NNE,23,9.2,9.2,20,0.00,CLR,,0.00,WeatherDisplay:10.37,2013-01-22 19:24:00,
2013-01-22 14:29:00,34.0,-0.9,29.50,West,263,5.8,5.8,22,0.00,CLR,,0.00,WeatherDisplay:10.37,2013-01-22 19:29:00,
2013-01-22 14:34:00,34.1,-3.9,29.50,North,0,5.8,5.8,19,0.00,CLR,,0.00,WeatherDisplay:10.37,2013-01-22 19:34:00,
2013-01-22 14:39:00,34.4,-2.6,29.50,NNW,344,6.9,6.9,20,0.00,CLR,,0.00,WeatherDisplay:10.37,2013-01-22 19:39:00,
2013-01-22 14:44:00,34.7,-0.3,29.50,West,267,6.0,6.0,22,0.00,CLR,,0.00,WeatherDisplay:10.37,2013-01-22 19:44:00,
2013-01-22 14:49:00,34.4,-3.7,29.50,North,359,6.9,6.9,19,0.00,CLR,,0.00,WeatherDisplay:10.37,2013-01-22 19:49:00,
2013-01-22 14:54:00,34.4,-2.6,29.50,WNW,289,10.4,10.4,20,0.00,CLR,,0.00,WeatherDisplay:10.37,2013-01-22 19:54:00,
2013-01-22 14:59:00,34.7,-2.4,29.50,NNE,20,2.3,2.3,20,0.00,CLR,,0.00,WeatherDisplay:10.37,2013-01-22 19:59:00,
2013-01-22 15:04:00,34.7,-2.4,29.50,NW,311,3.5,0.0,20,0.00,CLR,,0.00,WeatherDisplay:10.37,2013-01-22 20:04:00,
2013-01-22 15:10:00,34.6,-2.4,29.50,WNW,291,10.4,10.4,20,0.00,CLR,,0.00,WeatherDisplay:10.37,2013-01-22 20:10:00,
2013-01-22 15:15:00,34.6,-2.4,29.50,North,8,5.0,5.0,20,0.00,CLR,,0.00,WeatherDisplay:10.37,2013-01-22 20:15:00,
2013-01-22 15:20:00,35.0,-1.1,29.50,NNW,332,6.0,6.0,21,0.00,CLR,,0.00,WeatherDisplay:10.37,2013-01-22 20:20:00,
2013-01-22 15:25:00,35.0,-2.1,29.50,North,356,12.7,12.7,20,0.00,CLR,,0.00,WeatherDisplay:10.37,2013-01-22 20:25:00,
2013-01-22 15:30:00,35.2,-0.9,29.50,WSW,251,5.8,5.8,21,0.00,CLR,,0.00,WeatherDisplay:10.37,2013-01-22 20:30:00,
2013-01-22 15:35:00,35.5,-0.7,29.50,North,0,4.0,4.0,21,0.00,CLR,,0.00,WeatherDisplay:10.37,2013-01-22 20:35:00,
2013-01-22 15:40:00,35.5,-1.7,29.50,North,359,11.5,11.5,20,0.00,CLR,,0.00,WeatherDisplay:10.37,2013-01-22 20:40:00,
2013-01-22 15:45:00,35.2,0.1,29.51,North,0,3.0,3.0,22,0.00,CLR,,0.00,WeatherDisplay:10.37,2013-01-22 20:45:00,
2013-01-22 15:50:00,35.3,-0.8,29.51,North,0,1.1,0.0,21,0.00,CLR,,0.00,WeatherDisplay:10.37,2013-01-22 20:50:00,
2013-01-22 15:55:00,35.9,-0.3,29.51,SW,222,2.3,2.3,21,0.00,CLR,,0.00,WeatherDisplay:10.37,2013-01-22 20:55:00,
2013-01-22 16:00:00,36.2,0.9,29.51,NW,313,4.6,4.6,22,0.00,CLR,,0.00,WeatherDisplay:10.37,2013-01-22 21:00:00,
2013-01-22 16:05:00,36.0,-0.2,29.51,North,0,3.0,3.0,21,0.00,CLR,,0.00,WeatherDisplay:10.37,2013-01-22 21:05:00,
2013-01-22 16:10:00,35.9,-0.3,29.51,NNE,18,4.6,4.6,21,0.00,CLR,,0.00,WeatherDisplay:10.37,2013-01-22 21:10:00,
2013-01-22 16:15:00,35.5,-0.7,29.51,NNW,329,3.5,3.5,21,0.00,CLR,,0.00,WeatherDisplay:10.37,2013-01-22 21:15:00,
2013-01-22 16:20:00,35.6,-0.6,29.51,WNW,302,4.6,0.0,21,0.00,CLR,,0.00,WeatherDisplay:10.37,2013-01-22 21:20:00,
2013-01-22 16:25:00,35.8,-0.4,29.51,NNW,333,8.1,8.1,21,0.00,CLR,,0.00,WeatherDisplay:10.37,2013-01-22 21:25:00,
2013-01-22 16:30:00,35.5,0.3,29.51,North,0,5.0,5.0,22,0.00,CLR,,0.00,WeatherDisplay:10.37,2013-01-22 21:30:00,
2013-01-22 16:31:00,35.5,0.3,29.51,NNE,28,4.6,4.6,22,0.00,CLR,,0.00,WeatherDisplay:10.37,2013-01-22 21:31:00,
2013-01-22 16:37:00,35.5,0.3,29.51,North,349,1.1,1.1,22,0.00,CLR,,0.00,WeatherDisplay:10.37,2013-01-22 21:37:00,
2013-01-22 16:42:00,35.6,0.4,29.51,NW,315,3.5,4.7,22,0.00,CLR,,0.00,WeatherDisplay:10.37,2013-01-22 21:42:00,
2013-01-22 16:47:00,35.8,0.6,29.51,WSW,246,3.5,3.5,22,0.00,CLR,,0.00,WeatherDisplay:10.37,2013-01-22 21:47:00,
2013-01-22 16:52:00,35.6,-2.7,29.51,West,261,11.5,11.5,19,0.00,CLR,,0.00,WeatherDisplay:10.37,2013-01-22 21:52:00,
2013-01-22 16:57:00,35.5,-1.7,29.52,NNW,347,6.9,6.9,20,0.00,CLR,,0.00,WeatherDisplay:10.37,2013-01-22 21:57:00,
2013-01-22 17:02:00,35.2,-3.0,29.52,WSW,247,6.9,6.9,19,0.00,CLR,,0.00,WeatherDisplay:10.37,2013-01-22 22:02:00,
2013-01-22 17:07:00,35.0,-4.3,29.52,WNW,287,1.1,0.0,18,0.00,CLR,,0.00,WeatherDisplay:10.37,2013-01-22 22:07:00,
2013-01-22 17:12:00,34.7,-3.4,29.52,WNW,302,0.0,0.0,19,0.00,CLR,,0.00,WeatherDisplay:10.37,2013-01-22 22:12:00,
2013-01-22 17:18:00,34.3,-2.7,29.52,WSW,237,2.3,2.3,20,0.00,CLR,,0.00,WeatherDisplay:10.37,2013-01-22 22:18:00,
2013-01-22 17:23:00,34.0,-2.9,29.52,WNW,299,0.0,0.0,20,0.00,CLR,,0.00,WeatherDisplay:10.37,2013-01-22 22:23:00,
2013-01-22 17:28:00,33.7,-3.2,29.52,WNW,291,2.3,2.3,20,0.00,CLR,,0.00,WeatherDisplay:10.37,2013-01-22 22:28:00,
2013-01-22 17:33:00,33.5,-3.4,29.52,North,0,0.0,0.0,20,0.00,CLR,,0.00,WeatherDisplay:10.37,2013-01-22 22:33:00,
2013-01-22 17:38:00,33.2,-2.6,29.52,North,0,1.1,1.1,21,0.00,CLR,,0.00,WeatherDisplay:10.37,2013-01-22 22:38:00,
2013-01-22 17:43:00,33.1,-2.7,29.52,North,0,1.1,0.0,21,0.00,CLR,,0.00,WeatherDisplay:10.37,2013-01-22 22:43:00,
2013-01-22 17:48:00,32.7,-3.0,29.52,North,0,1.1,1.1,21,0.00,CLR,,0.00,WeatherDisplay:10.37,2013-01-22 22:48:00,
2013-01-22 17:53:00,32.5,-3.2,29.52,North,0,0.0,0.0,21,0.00,CLR,,0.00,WeatherDisplay:10.37,2013-01-22 22:53:00,
2013-01-22 17:58:00,32.2,-3.4,29.53,North,0,0.0,0.0,21,0.00,CLR,,0.00,WeatherDisplay:10.37,2013-01-22 22:58:00,
2013-01-22 18:03:00,32.1,-2.5,29.53,North,11,0.0,0.0,22,0.00,CLR,,0.00,WeatherDisplay:10.37,2013-01-22 23:03:00,
2013-01-22 18:08:00,32.1,-2.5,29.53,NNE,13,0.0,0.0,22,0.00,CLR,,0.00,WeatherDisplay:10.37,2013-01-22 23:08:00,
2013-01-22 18:13:00,31.6,-3.0,29.53,North,359,0.0,0.0,22,0.00,CLR,,0.00,WeatherDisplay:10.37,2013-01-22 23:13:00,
2013-01-22 18:18:00,31.2,-3.3,29.53,North,359,0.0,0.0,22,0.00,CLR,,0.00,WeatherDisplay:10.37,2013-01-22 23:18:00,
2013-01-22 18:23:00,30.7,-3.7,29.53,North,359,0.0,0.0,22,0.00,CLR,,0.00,WeatherDisplay:10.37,2013-01-22 23:23:00,
2013-01-22 18:28:00,30.4,-4.0,29.54,North,359,0.0,0.0,22,0.00,CLR,,0.00,WeatherDisplay:10.37,2013-01-22 23:28:00,
2013-01-22 18:33:00,30.1,-0.7,29.54,North,359,0.0,0.0,26,0.00,CLR,,0.00,WeatherDisplay:10.37,2013-01-22 23:33:00,
2013-01-22 18:38:00,30.0,-1.6,29.54,North,359,0.0,0.0,25,0.00,CLR,,0.00,WeatherDisplay:10.37,2013-01-22 23:38:00,
2013-01-22 18:43:00,29.8,-2.7,29.55,North,0,0.0,0.0,24,0.00,CLR,,0.00,WeatherDisplay:10.37,2013-01-22 23:43:00,
2013-01-22 18:48:00,29.7,-2.8,29.55,North,0,0.0,0.0,24,0.00,CLR,,0.00,WeatherDisplay:10.37,2013-01-22 23:48:00,
2013-01-22 18:53:00,29.7,-2.8,29.55,North,0,0.0,0.0,24,0.00,CLR,,0.00,WeatherDisplay:10.37,2013-01-22 23:53:00,
2013-01-22 18:58:00,29.5,-2.9,29.55,NE,44,0.0,0.0,24,0.00,CLR,,0.00,WeatherDisplay:10.37,2013-01-22 23:58:00,
2013-01-22 19:03:00,29.4,-3.0,29.55,NE,35,0.0,0.0,24,0.00,CLR,,0.00,WeatherDisplay:10.37,2013-01-23 00:03:00,
2013-01-22 19:08:00,29.3,-0.6,29.55,NNE,13,3.5,3.5,27,0.00,CLR,,0.00,WeatherDisplay:10.37,2013-01-23 00:08:00,
2013-01-22 19:13:00,29.3,-0.6,29.55,NNE,13,0.0,0.0,27,0.00,CLR,,0.00,WeatherDisplay:10.37,2013-01-23 00:13:00,
2013-01-22 19:18:00,29.1,-0.8,29.55,North,8,1.1,1.1,27,0.00,CLR,,0.00,WeatherDisplay:10.37,2013-01-23 00:18:00,
2013-01-22 19:23:00,29.0,0.7,29.55,North,8,1.1,1.1,29,0.00,CLR,,0.00,WeatherDisplay:10.37,2013-01-23 00:23:00,
2013-01-22 19:28:00,28.8,-0.3,29.55,North,8,0.0,0.0,28,0.00,CLR,,0.00,WeatherDisplay:10.37,2013-01-23 00:28:00,
2013-01-22 19:33:00,28.7,-1.1,29.55,North,8,0.0,0.0,27,0.00,CLR,,0.00,WeatherDisplay:10.37,2013-01-23 00:33:00,
2013-01-22 19:38:00,28.5,-0.5,29.55,North,8,0.0,0.0,28,0.00,CLR,,0.00,WeatherDisplay:10.37,2013-01-23 00:38:00,
2013-01-22 19:43:00,28.4,-0.6,29.55,North,8,0.0,0.0,28,0.00,CLR,,0.00,WeatherDisplay:10.37,2013-01-23 00:43:00,
2013-01-22 19:48:00,28.2,-0.8,29.55,North,8,0.0,0.0,28,0.00,CLR,,0.00,WeatherDisplay:10.37,2013-01-23 00:48:00,
2013-01-22 19:53:00,28.1,-0.1,29.55,North,8,0.0,0.0,29,0.00,CLR,,0.00,WeatherDisplay:10.37,2013-01-23 00:53:00,
2013-01-22 19:58:00,27.9,-1.1,29.56,North,8,0.0,0.0,28,0.00,CLR,,0.00,WeatherDisplay:10.37,2013-01-23 00:58:00,
2013-01-22 20:03:00,27.8,-1.1,29.56,North,8,0.0,0.0,28,0.00,CLR,,0.00,WeatherDisplay:10.37,2013-01-23 01:03:00,
2013-01-22 20:08:00,27.6,-0.6,29.56,NNE,31,2.3,0.0,29,0.00,CLR,,0.00,WeatherDisplay:10.37,2013-01-23 01:08:00,
2013-01-22 20:13:00,27.6,-0.6,29.56,NNE,31,0.0,0.0,29,0.00,CLR,,0.00,WeatherDisplay:10.37,2013-01-23 01:13:00,
2013-01-22 20:18:00,27.5,-1.4,29.56,NNE,31,0.0,0.0,28,0.00,CLR,,0.00,WeatherDisplay:10.37,2013-01-23 01:18:00,
2013-01-22 20:23:00,27.3,-1.6,29.56,NNE,31,0.0,0.0,28,0.00,CLR,,0.00,WeatherDisplay:10.37,2013-01-23 01:23:00,
2013-01-22 20:28:00,27.3,-0.1,29.57,NNE,31,0.0,0.0,30,0.00,CLR,,0.00,WeatherDisplay:10.37,2013-01-23 01:28:00,
2013-01-22 20:33:00,27.3,-0.1,29.57,North,0,0.0,0.0,30,0.00,CLR,,0.00,WeatherDisplay:10.37,2013-01-23 01:33:00,
2013-01-22 20:38:00,27.2,-0.9,29.57,North,0,0.0,0.0,29,0.00,CLR,,0.00,WeatherDisplay:10.37,2013-01-23 01:38:00,
2013-01-22 20:43:00,27.0,-0.4,29.58,North,0,0.0,0.0,30,0.00,CLR,,0.00,WeatherDisplay:10.37,2013-01-23 01:43:00,
2013-01-22 20:48:00,26.9,0.9,29.58,North,359,0.0,0.0,32,0.00,CLR,,0.00,WeatherDisplay:10.37,2013-01-23 01:48:00,
2013-01-22 20:53:00,26.7,1.4,29.58,North,359,0.0,0.0,33,0.00,CLR,,0.00,WeatherDisplay:10.37,2013-01-23 01:53:00,
2013-01-22 20:58:00,26.6,0.7,29.58,North,359,0.0,0.0,32,0.00,CLR,,0.00,WeatherDisplay:10.37,2013-01-23 01:58:00,
2013-01-22 21:03:00,26.4,-0.9,29.58,North,359,0.0,0.0,30,0.00,CLR,,0.00,WeatherDisplay:10.37,2013-01-23 02:03:00,
2013-01-22 21:08:00,26.4,-0.9,29.58,North,359,1.1,1.1,30,0.00,CLR,,0.00,WeatherDisplay:10.37,2013-01-23 02:08:00,
2013-01-22 21:13:00,26.4,-0.9,29.57,North,359,0.0,0.0,30,0.00,CLR,,0.00,WeatherDisplay:10.37,2013-01-23 02:13:00,
2013-01-22 21:18:00,26.4,-0.9,29.57,North,0,0.0,0.0,30,0.00,CLR,,0.00,WeatherDisplay:10.37,2013-01-23 02:18:00,
2013-01-22 21:23:00,26.4,-0.9,29.57,North,4,0.0,0.0,30,0.00,CLR,,0.00,WeatherDisplay:10.37,2013-01-23 02:23:00,
2013-01-22 21:28:00,26.4,-0.9,29.57,North,4,0.0,0.0,30,0.00,CLR,,0.00,WeatherDisplay:10.37,2013-01-23 02:28:00,
2013-01-22 21:34:00,26.3,-1.0,29.57,North,4,0.0,0.0,30,0.00,CLR,,0.00,WeatherDisplay:10.37,2013-01-23 02:34:00,
2013-01-22 21:39:00,26.3,-2.4,29.57,North,4,0.0,0.0,28,0.00,CLR,,0.00,WeatherDisplay:10.37,2013-01-23 02:39:00,
2013-01-22 21:44:00,26.3,-2.4,29.57,North,4,0.0,0.0,28,0.00,CLR,,0.00,WeatherDisplay:10.37,2013-01-23 02:44:00,
2013-01-22 21:49:00,26.1,-2.6,29.57,North,4,0.0,0.0,28,0.00,CLR,,0.00,WeatherDisplay:10.37,2013-01-23 02:49:00,
2013-01-22 21:54:00,26.1,-2.6,29.57,North,4,0.0,0.0,28,0.00,CLR,,0.00,WeatherDisplay:10.37,2013-01-23 02:54:00,
2013-01-22 21:59:00,26.1,-2.6,29.58,North,0,0.0,0.0,28,0.00,CLR,,0.00,WeatherDisplay:10.37,2013-01-23 02:59:00,
2013-01-22 22:04:00,26.1,-2.6,29.58,North,0,0.0,0.0,28,0.00,CLR,,0.00,WeatherDisplay:10.37,2013-01-23 03:04:00,
2013-01-22 22:09:00,26.1,-2.6,29.58,North,0,0.0,0.0,28,0.00,CLR,,0.00,WeatherDisplay:10.37,2013-01-23 03:09:00,
2013-01-22 22:14:00,26.1,-2.6,29.59,North,0,0.0,0.0,28,0.00,CLR,,0.00,WeatherDisplay:10.37,2013-01-23 03:14:00,
2013-01-22 22:19:00,26.1,-2.6,29.59,North,0,0.0,0.0,28,0.00,CLR,,0.00,WeatherDisplay:10.37,2013-01-23 03:19:00,
2013-01-22 22:24:00,26.1,-2.6,29.59,North,0,0.0,0.0,28,0.00,CLR,,0.00,WeatherDisplay:10.37,2013-01-23 03:24:00,
2013-01-22 22:29:00,26.1,-2.6,29.60,North,0,0.0,0.0,28,0.00,CLR,,0.00,WeatherDisplay:10.37,2013-01-23 03:29:00,
2013-01-22 22:34:00,26.1,-2.6,29.60,North,0,0.0,0.0,28,0.00,CLR,,0.00,WeatherDisplay:10.37,2013-01-23 03:34:00,
2013-01-22 22:39:00,26.1,-2.6,29.60,North,0,0.0,0.0,28,0.00,CLR,,0.00,WeatherDisplay:10.37,2013-01-23 03:39:00,
2013-01-22 22:44:00,26.1,-2.6,29.61,North,0,0.0,0.0,28,0.00,CLR,,0.00,WeatherDisplay:10.37,2013-01-23 03:44:00,
2013-01-22 22:49:00,26.1,-2.6,29.61,North,0,0.0,0.0,28,0.00,CLR,,0.00,WeatherDisplay:10.37,2013-01-23 03:49:00,
2013-01-22 22:54:00,26.1,-2.6,29.61,North,0,0.0,0.0,28,0.00,CLR,,0.00,WeatherDisplay:10.37,2013-01-23 03:54:00,
2013-01-22 22:59:00,26.1,-2.6,29.60,North,0,0.0,0.0,28,0.00,CLR,,0.00,WeatherDisplay:10.37,2013-01-23 03:59:00,
2013-01-22 23:04:00,26.1,-2.6,29.60,North,0,0.0,0.0,28,0.00,CLR,,0.00,WeatherDisplay:10.37,2013-01-23 04:04:00,
2013-01-22 23:09:00,26.1,-2.6,29.60,North,0,0.0,0.0,28,0.00,CLR,,0.00,WeatherDisplay:10.37,2013-01-23 04:09:00,
2013-01-22 23:14:00,26.1,-2.6,29.60,North,0,0.0,0.0,28,0.00,CLR,,0.00,WeatherDisplay:10.37,2013-01-23 04:14:00,
2013-01-22 23:19:00,26.1,-2.6,29.60,North,0,0.0,0.0,28,0.00,CLR,,0.00,WeatherDisplay:10.37,2013-01-23 04:19:00,
2013-01-22 23:24:00,26.1,-2.6,29.60,North,0,0.0,0.0,28,0.00,CLR,,0.00,WeatherDisplay:10.37,2013-01-23 04:24:00,
2013-01-22 23:29:00,26.1,-2.6,29.60,North,0,0.0,0.0,28,0.00,CLR,,0.00,WeatherDisplay:10.37,2013-01-23 04:29:00,
2013-01-22 23:34:00,26.1,-2.6,29.60,North,0,0.0,0.0,28,0.00,CLR,,0.00,WeatherDisplay:10.37,2013-01-23 04:34:00,
2013-01-22 23:39:00,26.1,-2.6,29.60,North,0,0.0,0.0,28,0.00,CLR,,0.00,WeatherDisplay:10.37,2013-01-23 04:39:00,
2013-01-22 23:44:00,26.1,-2.6,29.60,North,0,0.0,0.0,28,0.00,CLR,,0.00,WeatherDisplay:10.37,2013-01-23 04:44:00,
2013-01-22 23:49:00,26.1,-2.6,29.60,North,0,0.0,0.0,28,0.00,CLR,,0.00,WeatherDisplay:10.37,2013-01-23 04:49:00,
2013-01-22 23:54:00,26.1,-2.6,29.60,North,0,0.0,0.0,28,0.00,CLR,,0.00,WeatherDisplay:10.37,2013-01-23 04:54:00,
2013-01-22 23:59:00,26.1,-2.6,29.60,North,0,0.0,0.0,28,0.00,CLR,,0.00,WeatherDisplay:10.37,2013-01-23 04:59:00,